CYGFM05

Last updated on Wed Sep 23 2026 00:03:10 GMT+0000 (Coordinated Universal Time)

1 41884U 16078A 26265.46306850 .00020129 00000+0 23237-3 0 9993 2 41884 34.9568 334.4047 0004683 359.0522 1.0194 15.60917399543944
UTC large
Height (km)
Speed (km/s)
/
Latitude / Longitude
Inclination (degrees)
Orbital Period (minutes)
Azimuth
Elevation
Range (km)
Doppler Factor

Next 0 passes for location: London (51.5072 / 0.1276)

No passes found over London.
CYGFM05